Flag for Canada Weather past 2 weeks in Fredericton, New Brunswick, Canada

Now
32 °F

Clear.


Feels Like: 26 °F
Forecast: 18 / 30 °F
Wind: 7 mph from West

Location: Fredericton

Current Time: Apr 1, 2015 at 12:40:01 AM

Latest Report: Mar 31, 2015 at 11:00 PM


Visibility: 9 mi

Pressure: 29.71 "Hg

Humidity: 64%

Dew point: 21 °F

Location of FrederictonLocation

Historic Weather in Fredericton — Graph

°F

Fredericton temperature yesterday

Maximum temperature yesterday: 41 °F (at 12:57 PM)
Minimum temperature yesterday: 32 °F (at 11:00 PM)
Average temperature yesterday: 36 °F

Past Weeks' High & Low Weather Summary

 TemperatureHumidityPressure
High50 °F (Mar 26, 5:00 PM)100% (Mar 17, 7:00 PM)30.35 "Hg (Mar 17, 7:00 PM)
Low3 °F (Mar 17, 5:00 AM)22% (Mar 29, 4:00 PM)29.26 "Hg (Mar 18, 1:47 AM)
Average27 °F66%29.82 "Hg
* Reported Mar 16 11:00 PM — Mar 31 11:00 PM, Fredericton, Weather by CustomWeather, © 2015

Note: Actual official high and low records may vary slightly from our data, if they occured in-between our weather recording intervals... More about our weather records

Advertising

Fredericton weather history for previous 24 hours

 ConditionsComfort  
Time TempWeatherWind HumidityBarometerVisibility
11:00 PM
Tue, Mar 31
32 °FClear.7 mph64%29.71 "Hg9 mi
10:00 PM34 °FClear.6 mph65%29.70 "Hg9 mi
9:00 PM36 °FPassing clouds.5 mph60%29.67 "Hg9 mi
8:01 PM36 °FOvercast.7 mph65%29.63 "Hg9 mi
7:00 PM37 °FOvercast.8 mph60%29.61 "Hg9 mi
6:00 PM39 °FOvercast.10 mph61%29.58 "Hg9 mi
5:00 PM39 °FMostly cloudy.12 mph65%29.55 "Hg9 mi
4:00 PM39 °FCloudy.15 mph70%29.54 "Hg9 mi
3:00 PM39 °FMore clouds than sun.8 mph65%29.52 "Hg9 mi
2:00 PM39 °FOvercast.13 mph65%29.52 "Hg9 mi
1:00 PM41 °FMostly cloudy.15 mph66%29.52 "Hg9 mi
12:57 PM41 °FMore clouds than sun.17 mph66%29.52 "Hg9 mi
12:02 PM39 °FBroken clouds.12 mph70%29.52 "Hg9 mi
11:00 AM37 °FMostly cloudy.7 mph81%29.52 "Hg9 mi
10:54 AM36 °FMostly cloudy.10 mph87%29.52 "Hg9 mi
10:00 AM36 °FLight rain. Overcast.6 mph87%29.52 "Hg9 mi
9:00 AM34 °FMostly cloudy.6 mph93%29.51 "Hg9 mi
8:00 AM34 °FOvercast.5 mph93%29.52 "Hg8 mi
7:00 AM34 °FOvercast.3 mph93%29.52 "Hg8 mi
6:00 AM34 °FOvercast.5 mph93%29.52 "Hg9 mi
5:00 AM34 °FOvercast.3 mph93%29.52 "Hg9 mi
4:00 AM34 °FOvercast.3 mph93%29.53 "Hg9 mi
3:04 AM34 °FOvercast.3 mph100%29.55 "Hg9 mi
2:53 AM34 °FLight rain. Overcast.3 mph100%29.56 "Hg9 mi
2:00 AM34 °FLight rain. Mostly cloudy.6 mph100%29.57 "Hg9 mi
1:59 AM34 °FLight rain. Mostly cloudy.6 mph100%29.57 "Hg9 mi
1:00 AM34 °FLight mixture of precip. Overcast.8 mph93%29.59 "Hg9 mi
12:02 AM34 °FLight mixture of precip. Mostly cloudy.10 mph93%29.61 "Hg9 mi
Weather by CustomWeather, © 2015

See weather overviewHow to use our weather pages